Location: Cointrin
(46.2167°N, 6.1167°E)
Time: 07:50:55
(UTC+00:00)

Oscar 19 - Visible Passes

Search period start: 02 December 2023 00:00
Search period end: 12 December 2023 00:00
Orbit: 771 x 789 km, 98.9° (Epoch: 01 December)

Date Brightness Start Highest point End Pass type
(mag) Time Alt. Az. Time Alt. Az. Time Alt. Az.
02 Dec 12.3 03:38:31 10° NNE 03:43:07 32° E 03:47:42 10° SSE visible
02 Dec 11.1 05:17:41 10° N 05:22:23 37° WNW 05:27:05 10° SW visible
02 Dec 13.5 16:38:41 10° SW 16:42:10 18° W 16:45:39 10° NW visible
03 Dec 13.2 03:07:10 10° NE 03:10:28 17° E 03:13:46 10° SE visible
03 Dec 10.5 04:45:05 10° N 04:50:13 69° WNW 04:55:20 10° SSW visible
03 Dec 12.4 06:26:55 10° NW 06:28:32 11° NW 06:30:09 10° WNW visible
04 Dec 11.0 04:12:45 10° NNE 04:17:53 64° ESE 04:23:00 10° S visible
04 Dec 11.8 05:52:59 10° NNW 05:56:41 20° WNW 06:00:23 10° WSW visible
05 Dec 12.2 03:40:45 10° NNE 03:45:24 33° E 03:50:03 10° SSE visible
05 Dec 11.1 05:19:59 10° N 05:24:39 36° WNW 05:29:19 10° SW visible
05 Dec 13.5 16:41:06 10° SW 16:44:27 18° W 16:47:51 10° NW visible
06 Dec 13.2 03:09:21 10° NE 03:12:46 18° E 03:16:11 10° SE visible
06 Dec 10.5 04:47:22 10° N 04:52:29 66° WNW 04:57:36 10° SSW visible
07 Dec 10.9 04:15:01 10° NNE 04:20:10 66° ESE 04:25:18 10° S visible
07 Dec 11.9 05:55:17 10° NNW 05:58:55 20° WNW 06:02:34 10° WSW visible
08 Dec 12.1 03:42:59 10° NNE 03:47:41 34° E 03:52:23 10° SSE visible
08 Dec 11.2 05:22:17 10° N 05:26:55 35° WNW 05:31:33 10° SW visible
08 Dec 13.5 16:43:29 10° SW 16:46:45 17° W 16:50:02 10° NW visible
09 Dec 13.1 03:11:31 10° NE 03:15:04 18° E 03:18:35 10° SE visible
09 Dec 10.5 04:49:38 10° N 04:54:45 64° WNW 04:59:51 10° SSW visible
09 Dec 12.4 06:31:51 10° NW 06:33:01 11° NW 06:34:10 10° WNW visible
10 Dec 10.9 04:17:16 10° NNE 04:22:26 69° ESE 04:27:36 10° S visible
10 Dec 11.9 05:57:36 10° NNW 06:01:10 19° WNW 06:04:44 10° WSW visible
11 Dec 12.0 03:45:13 10° NNE 03:49:58 36° E 03:54:42 10° SSE visible
11 Dec 11.2 05:24:33 10° N 05:29:09 33° WNW 05:33:45 10° SW visible
11 Dec 13.5 16:45:52 10° SW 16:49:01 16° W 16:52:12 10° NW visible
